Regional Weather Roundup
Issued by NWS Cleveland, OH

Home | Current Version | Previous Version | Text Only | Print | Product List | Glossary Off
Versions: 1 2 3 4 5 6 7 8 9 10 11 12 13 14 15 16 17 18 19 20 21 22 23 24 25 26 27 28 29 30 31 32 33 34 35 36 37 38 39 40 41 42 43 44 45 46 47 48 49 50

000
ASUS41 KCLE 050802
RWRCLE
OHIO REGIONAL WEATHER ROUNDUP
NATIONAL WEATHER SERVICE CLEVELAND, OH
400 AM EDT TUE MAY 05 2015

NOTE: "FAIR" INDICATES FEW OR NO CLOUDS BELOW 12,000 FEET WITH NO
SIGNIFICANT WEATHER AND/OR OBSTRUCTIONS TO VISIBILITY.

OHZ001>008-015>018-024>027-034-035-043-044-050900-
   NORTHWEST OHIO

CITY           SKY/WX    TMP DP  RH WIND       PRES   REMARKS
DEFIANCE       CLOUDY    61  59  93 SW5       30.19S FOG
FINDLAY        CLOUDY    61  58  90 S5        30.19S FOG
TOLEDO EXPRESS MOCLDY    61  59  93 CALM      30.18S FOG
TOLEDO EXEC    MOCLDY    60  57  89 W5        30.20R FOG
LIMA           CLOUDY    61  59  93 S7        30.20S FOG
$$

OHZ009>014-019>023-028>033-038-089-050900-
   NORTHEAST OHIO

CITY           SKY/WX    TMP DP  RH WIND       PRES   REMARKS
CLE-HOPKINS    MOCLDY    57  56  96 CALM      30.22S FOG
CLE-LAKEFRONT  CLEAR     56  53  90 S3        30.20R
CUY CO. ARPT   NOT AVBL
LORAIN-ELYRIA  FOG       56  56 100 CALM      30.21R VSB 1/2
ASHTABULA      FOG       55  54  96 CALM      30.22R VSB 1/4
AKRON-CANTON   FOG       57  56  96 CALM      30.22R VSB 1
WOOSTER        MOCLDY    57  56  96 CALM      30.22R FOG
MANSFIELD      CLOUDY    59  58  96 S5        30.22R FOG
YOUNGSTOWN     PTCLDY    54  53  97 CALM      30.21S
$$

OHZ042-051>053-060>062-070>072-077>081-050900-
  SOUTHWEST OHIO

CITY           SKY/WX    TMP DP  RH WIND       PRES   REMARKS
CINC-COVINGTON MOCLDY    63  57  81 SE3       30.22S
CINC-LUNKEN    FOG       56  56 100 CALM      30.22S VSB 1/4
HAMILTON       CLOUDY    60  58  92 CALM      30.22S
DAYTON         CLOUDY    63  60  90 NW9       30.23R
WRIGHT-PAT AFB NOT AVBL
DAYTON GENERAL CLOUDY    62  60  93 CALM      30.21R
WILMINGTON     MOCLDY    58  56  93 SE3       30.23R
$$

OHZ036-037-039>041-045>050-054>059-063>069-073>076-082>088-050900-
  CENTRAL AND SOUTHEAST OHIO

CITY           SKY/WX    TMP DP  RH WIND       PRES   REMARKS
COLUMBUS       LGT RAIN  62  61  96 CALM      30.22R FOG
OSU AIRPORT    RAIN      62  60  93 W8        30.23R FOG
BOLTON FIELD   NOT AVBL
RICKENBACK AFB NOT AVBL
NEWARK         LGT RAIN  60  59  96 CALM      30.21F VSB 3/4
MARION         CLOUDY    61  58  90 SW7       30.22R FOG
LANCASTER      MOCLDY    61  58  90 CALM      30.22F FOG
ZANESVILLE     FOG       58  57  97 CALM      30.22S VSB 1/4
NEW PHILLY     FOG       61  59  93 CALM      30.22S VSB 1/4
$$


USA.gov is the U.S. government's official web portal to all federal, state and local government web resources and services.